SEASAT 1 1 10967U 78064A 10248.77669907 -.00000068 00000-0 20658-4 0 2076 2 10967 108.0079 172.7522 0003392 270.5344 089.5411 14.42219083689418 LANDSAT 4 1 13367U 82072A 10248.95234830 -.00000310 00000-0 -18034-4 0 5114 2 13367 098.2031 193.9709 0017277 293.6223 066.3210 15.02537171511449 LANDSAT 5 1 14780U 84021A 10248.99706207 .00000050 00000-0 21194-4 0 1314 2 14780 098.1912 315.6108 0003346 150.2681 209.8701 14.57116438410300 COSMOS 1602 1 15331U 84105A 10249.17573588 .00000826 00000-0 61323-4 0 1729 2 15331 082.5246 205.8384 0015189 138.4569 221.7812 15.01650775408958 SPOT 1 1 16613U 86019A 10248.56667089 .00000084 00000-0 25133-4 0 8150 2 16613 098.6998 124.8303 0152513 132.9724 228.4387 14.60969116967395 COSMOS 1766 1 16881U 86055A 10248.74036445 .00000916 00000-0 71765-4 0 7855 2 16881 082.5087 265.6286 0012385 218.1079 141.9263 14.99837122308999 MOS 1A (MOMO 1) 1 17527U 87018A 10248.81850165 .00000325 00000-0 24207-3 0 4909 2 17527 099.0167 208.4405 0008433 279.0871 080.9344 14.01952767202409 IRS 1A 1 18960U 88021A 10248.46373600 -.00000323 00000-0 -20007-3 0 9472 2 18960 099.3436 220.6968 0014822 108.5874 251.6897 13.96442608 48837 OKEAN 1 1 19274U 88056A 10248.78251607 .00000359 00000-0 28799-4 0 1135 2 19274 082.5070 020.3698 0016986 076.0426 284.2706 14.96998473203408 SPOT 2 1 20436U 90005A 10249.20597147 .00000074 00000-0 23072-4 0 5052 2 20436 098.6328 342.2890 0155475 005.7510 354.5450 14.62028416 70711 MOS 1B (MOMO 1B) 1 20478U 90013A 10248.95053255 .00000024 00000-0 49781-4 0 713 2 20478 098.9577 201.6030 0005985 027.9850 332.1686 13.94981631968454 OKEAN 2 1 20510U 90018A 10249.23279359 .00000300 00000-0 27067-4 0 4840 2 20510 082.5172 015.6691 0015626 028.1401 332.0663 14.91937413111412 OKEAN 3 1 21397U 91039A 10248.73923937 .00000192 00000-0 18671-4 0 767 2 21397 082.5250 320.5039 0018502 199.3908 160.6609 14.87003859 41089 ERS 1 1 21574U 91050A 10247.64325132 +.00000043 +00000-0 +28818-4 0 08373 2 21574 098.1574 246.8935 0034169 174.4737 185.6804 14.35726896001866 IRS 1B 1 21688U 91061A 10249.10959027 -.00000167 00000-0 -90312-4 0 8883 2 21688 098.7143 241.4737 0024267 335.7559 024.2454 13.96939593863886 TOPEX/POSEIDON 1 22076U 92052A 10247.88225284 -.00000038 +00000-0 +10000-3 0 05709 2 22076 066.0370 227.0009 0007790 265.9238 094.0888 12.80953513845202 SPOT 3 1 22823U 93061A 10249.09497946 .00000004 00000-0 22316-4 0 6393 2 22823 098.6253 197.8326 0017086 162.1451 198.0328 14.18707601877378 OKEAN 4 1 23317U 94066A 10248.82505692 .00000222 00000-0 24452-4 0 3310 2 23317 082.5394 278.5955 0021550 341.1334 018.9078 14.82854870858407 IRS P2 1 23323U 94068A 10248.81133008 -.00000014 00000-0 12200-4 0 7015 2 23323 098.4669 208.1606 0000891 077.7597 282.3685 14.23101779825183 RESURS O1 1 23342U 94074A 10248.50587373 .00000065 00000-0 16686-4 0 95 2 23342 098.0701 225.1892 0001495 104.6622 255.4751 14.76867615851925 ERS 2 1 23560U 95021A 10249.11348349 .00000018 00000-0 22917-4 0 5385 2 23560 098.5607 322.8509 0000851 077.9062 282.2222 14.32242116804049 SICH 1 1 23657U 95046A 10248.81133104 .00000320 00000-0 37439-4 0 1282 2 23657 082.5252 059.6836 0023343 338.3837 021.6384 14.81799108810254 RADARSAT 1 23710U 95059A 10249.15109185 .00000100 00000-0 55923-4 0 6656 2 23710 098.5822 254.6402 0001082 084.0749 004.7180 14.29937016774544 IRS 1C 1 23751U 95072A 10249.15450793 .00000217 00000-0 11724-3 0 3500 2 23751 098.3659 234.8228 0001325 082.5989 008.0829 14.21875875762449 IRS B3 1 23827U 96017A 10248.39979773 .00000023 00000-0 29388-4 0 9465 2 23827 098.4449 209.9918 0004078 032.6397 327.5031 14.21739710750388 TOMS EP 1 23940U 96037A 10248.24955708 .00000104 00000-0 35712-4 0 4394 2 23940 097.9714 104.8009 0030704 058.6250 301.7943 14.52341500754029 ADEOS 1 24277U 96046A 10248.32564372 .00000012 00000-0 21596-4 0 4450 2 24277 098.4235 201.3098 0002009 058.1029 302.0362 14.28623993732481 ORBVIEW 2 (SEASTAR) 1 24883U 97037A 10248.42560995 -.00000062 00000-0 -74551-5 0 2277 2 24883 098.3424 018.5652 0001430 230.9183 129.1873 14.32198501697241 IRS 1D 1 24971U 97057A 10249.05241318 .00000047 00000-0 31396-4 0 7356 2 24971 098.1991 267.3759 0054952 044.8943 315.6666 14.33008493676689 TRMM 1 25063U 97074A 10249.15297593 .00005298 00000-0 73735-4 0 4516 2 25063 034.9649 268.7207 0000941 239.3682 120.6955 15.56235258729606 SPOT 4 1 25260U 98017A 10249.14746681 .00000053 00000-0 45000-4 0 5563 2 25260 098.6500 318.1823 0001535 066.4693 293.6645 14.20063985645625 RESURS O1-N4 1 25394U 98043A 10248.36801324 -.00000040 00000-0 15009-6 0 5957 2 25394 098.3048 262.0820 0001934 022.8151 337.3120 14.24208254631767 FASAT B 1 25395U 98043B 10249.18800795 .00000004 00000-0 19506-4 0 8327 2 25395 098.3030 261.5883 0002849 001.5458 358.5722 14.24400534631939 TMSAT 1 25396U 98043C 10249.17484998 -.00000013 00000-0 12166-4 0 7909 2 25396 098.3097 258.1894 0003155 025.2317 334.9009 14.23811200631767 TECHSAT 1B 1 25397U 98043D 10247.68649794 +.00000037 +00000-0 +34157-4 0 02770 2 25397 098.3175 250.7679 0002034 057.1888 302.9482 14.23184154631352 ROCSAT 1 1 25616U 99002A 10247.77598403 .00000470 00000-0 37744-4 0 1832 2 25616 034.9655 357.5433 0046919 039.7138 320.6993 15.00917708634254 SUNSAT 1 25636U 99008C 10249.12115115 .00000011 00000-0 11454-4 0 7013 2 25636 096.4843 331.7167 0146508 250.0877 108.4479 14.43512713607433 LANDSAT 7 1 25682U 99020A 10249.10147820 .00000072 00000-0 26090-4 0 2322 2 25682 098.2045 316.2146 0001147 044.5736 315.5569 14.57110799606019 OSCAR 36 (UOSAT 12) 1 25693U 99021A 10247.85202493 -.00000003 +00000-0 +19225-4 0 02960 2 25693 064.5577 189.6707 0041745 300.0672 059.6319 14.78817057613593 KITSAT 3 1 25756U 99029A 10249.11928393 .00000115 00000-0 39873-4 0 2967 2 25756 098.6316 100.7407 0013191 256.1064 103.8680 14.52591303597895 TUBSAT 1 25757U 99029B 10249.07073636 -.00000104 00000-0 -14229-4 0 2131 2 25757 098.6700 091.5826 0013450 288.8805 071.0936 14.50866555597362 IRS P4 (OCEANSAT 1) 1 25758U 99029C 10247.47522226 -.00000346 +00000-0 -76725-4 0 05510 2 25758 098.2713 340.1274 0001247 039.9159 320.2140 14.50879321597283 QUIKSCAT 1 25789U 99034A 10248.61140805 -.00000013 00000-0 12744-4 0 8059 2 25789 098.6308 076.7980 0001413 064.4905 295.6422 14.26812578583977 OKEAN O 1 25860U 99039A 10249.08114537 .00000051 00000-0 15177-4 0 910 2 25860 097.8419 219.0698 0001250 104.3921 255.7433 14.73659448598815 IKONOS 2 1 25919U 99051A 10249.10031216 -.00000824 00000-0 -14680-3 0 5624 2 25919 098.1093 322.7688 0001652 100.0973 260.0452 14.64441355585327 CBERS 1 1 25940U 99057A 10248.99877313 .00000020 00000-0 21347-4 0 6723 2 25940 098.1802 235.0960 0004701 176.7814 183.3398 14.34500440570722 TERRA 1 25994U 99068A 10249.11879806 .00000060 00000-0 23297-4 0 1273 2 25994 098.1984 322.5207 0001596 093.0545 267.0837 14.57110980570098 KOMPSAT 1 26032U 99070A 10249.09418905 .00000072 00000-0 21584-4 0 2288 2 26032 097.8579 117.2116 0003756 258.1588 101.9194 14.65736622572806 TIUNGSAT 1 1 26548U 00057D 10247.84380526 -.00000072 +00000-0 +94167-5 0 07908 2 26548 064.5544 144.3079 0027163 211.4180 148.5291 14.83540034537916 EO 1 1 26619U 00075A 10249.09907265 .00000718 00000-0 15199-3 0 4922 2 26619 098.1463 315.0786 0009910 357.6878 002.4315 14.62139580521428 SAC C 1 26620U 00075B 10249.15520307 -.00000028 00000-0 32112-5 0 870 2 26620 097.8782 263.2796 0001585 074.7109 285.4303 14.56592623520590 EROS A1 1 26631U 00079A 10249.21405851 .00001814 00000-0 88615-4 0 2669 2 26631 097.4373 313.7718 0007643 225.2275 211.3174 15.19499164542210 QUICKBIRD 2 1 26953U 01047A 10249.16778992 .00003426 00000-0 88309-4 0 5805 2 26953 097.1024 319.0753 0002429 086.1092 357.8770 15.39855046499242 TES 1 26957U 01049A 10249.16604356 .00000199 00000-0 20177-4 0 5626 2 26957 097.6633 323.7425 0033676 110.7551 249.7291 15.01034640486103 JASON 1 26997U 01055A 10247.93622152 -.00000038 +00000-0 +10000-3 0 02425 2 26997 066.0444 226.7230 0008702 268.2908 091.7108 12.80928356409006 METEOR 3M 1 27001U 01056A 10249.22984483 -.00000046 00000-0 -45366-5 0 7177 2 27001 099.2159 090.6893 0013368 319.6247 040.3906 13.68717746436538 BADR B 1 27003U 01056C 10249.21704605 -.00000038 00000-0 44006-5 0 6083 2 27003 099.1958 097.3538 0019999 318.4118 041.5508 13.70107318437034 MAROC TUBSAT 1 27004U 01056D 10248.56283097 .00000023 00000-0 74373-4 0 5573 2 27004 099.1923 095.9300 0019754 321.3589 038.6143 13.70034498436918 ENVISAT 1 27386U 02009A 10249.02200999 -.00000031 00000-0 46000-5 0 4067 2 27386 098.5441 314.9704 0001144 086.2320 273.8986 14.32249737445310 SPOT 5 1 27421U 02021A 10248.85682204 -.00000043 00000-0 23145-6 0 4737 2 27421 098.7270 321.8474 0001022 104.7152 029.4966 14.20027480432413 AQUA 1 27424U 02022A 10248.45212557 .00000052 00000-0 21525-4 0 7377 2 27424 098.1923 188.4360 0001024 109.3117 250.8180 14.57120863443600 HAIYANG 1 1 27430U 02024A 10248.71831451 -.00000028 00000-0 57362-5 0 4410 2 27430 098.4218 306.7433 0008537 200.5884 159.4976 14.29777222433730 ALSAT 1 1 27559U 02054A 10249.09883762 .00000132 00000-0 30241-4 0 7985 2 27559 097.8759 114.9494 0023820 017.5698 342.6335 14.69419132415206 ADEOS 2 1 27597U 02056A 10249.19438325 .00000005 00000-0 19673-4 0 2363 2 27597 098.4170 302.8596 0001794 063.3688 296.7674 14.26222321402360 ICESAT (Decayed 2010-08-30) 1 27642U 03002A 10242.29496145 .32829894 29777-6 27939-3 0 7810 2 27642 093.9657 159.5990 0008035 042.2770 318.2079 16.52038191415543 ORBVIEW 3 1 27838U 03030A 10249.15807712 .00003494 00000-0 80615-4 0 8286 2 27838 096.9999 296.5502 0001351 102.7815 342.2181 15.43191106404116 IRS P6 1 28051U 03046A 10249.13417999 -.00000037 00000-0 31535-5 0 510 2 28051 098.6709 323.3010 0001215 310.9710 135.4737 14.21647904357473 CBERS 2 1 28057U 03049A 10249.14201777 -.00000011 00000-0 10471-4 0 5023 2 28057 098.2241 286.6711 0002684 087.5256 272.6245 14.34944461360359 TANSUO 1 1 28220U 04012A 10248.12584378 .00000085 00000-0 14494-4 0 6293 2 28220 097.4566 265.6320 0011833 147.7883 212.4058 14.88912353346617 ROCSAT 2 1 28254U 04018A 10249.13842183 .00000105 00000-0 10000-3 0 1194 2 28254 099.0736 311.0125 0002896 124.7516 319.8570 14.00716715321956 AURA 1 28376U 04026A 10248.38873316 .00000142 00000-0 41533-4 0 8965 2 28376 098.1926 190.4475 0001064 092.3004 267.8311 14.57110769326642 CARTOSAT-1 1 28649U 05017A 10249.17356694 .00000106 00000-0 19749-4 0 227 2 28649 097.9107 321.3980 0001850 076.3131 283.8316 14.82635253288946 TOPSAT 1 28891U 05043B 10249.04590017 .00000070 00000-0 24090-4 0 4386 2 28891 097.9910 129.4446 0017841 035.7757 324.4642 14.59829069258913 SINAH 1 1 28893U 05043D 10247.69485033 +.00000002 +00000-0 +98094-5 0 08619 2 28893 097.9957 129.5017 0016425 037.9095 322.3259 14.60125114258774 ALOS 1 28931U 06002A 10249.15847952 -.00000839 00000-0 -16704-3 0 1667 2 28931 098.1487 322.4863 0001228 094.6722 265.4637 14.59571478245952 EROS B 1 29079U 06014A 10249.20619073 .00001696 00000-0 83524-4 0 9158 2 29079 097.4381 006.8450 0008624 302.4288 150.9001 15.19315185242206 YAOGAN 1 1 29092U 06015A 10249.01026281 .00000256 00000-0 40310-4 0 5519 2 29092 097.8726 238.8095 0001069 084.7089 275.4296 14.80318466235725 RESURS DK-1 1 29228U 06021A 10249.16297207 .00001790 00000-0 40005-4 0 7552 2 29228 069.9314 261.5188 0159296 177.2224 298.4840 15.33732977236671 KOMPSAT 2 1 29268U 06031A 10249.14063221 .00000063 00000-0 21820-4 0 5770 2 29268 097.9920 133.3501 0017370 180.0258 180.0951 14.61817171219231 LAPAN-TUBSAT 1 29709U 07001A 10248.99647956 -.00000000 00000-0 66205-5 0 621 2 29709 097.7516 296.0751 0012049 274.7969 085.1861 14.80318534197434 CARTOSAT 2AT 1 29710U 07001B 10249.06762111 .00000039 00000-0 12315-4 0 536 2 29710 097.9542 308.4067 0000594 087.7713 272.3577 14.78638361197272 HAIYANG 1B 1 31113U 07010A 10249.02939203 .00000004 00000-0 18446-4 0 7934 2 31113 098.4978 317.9315 0013474 189.6680 170.4237 14.29484094177635 SKYMED 1 1 31598U 07023A 10249.03230973 .00000415 00000-0 58696-4 0 6255 2 31598 097.8643 075.1318 0001368 084.1575 275.9774 14.82168702175663 TERRA SAR X 1 31698U 07026A 10249.19112507 -.00000803 00000-0 -35040-4 0 6091 2 31698 097.4470 255.2401 0001603 081.6170 346.2925 15.19145168178987 WORLDVIEW 1 1 32060U 07041A 10249.10237200 .00000686 00000-0 30852-4 0 3158 2 32060 097.3923 326.7312 0002215 074.9610 016.6874 15.24428982165028 CBERS 2B 1 32062U 07042A 10247.82430612 +.00000002 +00000-0 +14720-4 0 00830 2 32062 098.4494 322.8001 0033283 069.8458 290.6313 14.38579323155334 SKYMED 2 1 32376U 07059A 10249.13358586 -.00000300 00000-0 -31105-4 0 379 2 32376 097.8644 075.2327 0001385 088.9641 271.1737 14.82164377148420 RADARSAT 2 1 32382U 07061A 10249.11787793 .00000052 00000-0 37184-4 0 222 2 32382 098.5810 255.4340 0001126 082.4140 005.0858 14.29982594142425 CARTOSAT 2A 1 32783U 08021A 10249.15258701 .00000295 00000-0 47215-4 0 6186 2 32783 097.8914 309.5804 0016575 052.3907 307.8810 14.78696678127236 IMS-1 1 32786U 08021D 10249.03156747 .00000165 00000-0 28669-4 0 792 2 32786 097.8926 311.1393 0013505 028.5521 331.6421 14.80085241127336 GLAST 1 33053U 08029A 10249.08898784 .00000279 00000-0 00000+0 0 5837 2 33053 025.5813 219.8747 0014592 207.9569 152.0204 15.05111321123131 JASON 2 1 33105U 08032A 10249.14360349 -.00000050 00000-0 46041-4 0 7387 2 33105 066.0391 224.6123 0008168 264.8676 095.1402 12.80930131103464 RAPIDEYE 2 1 33312U 08040A 10249.02546279 .00000069 00000-0 16131-4 0 2753 2 33312 097.9511 335.4225 0013140 105.7281 254.5373 14.79904110109143 RAPIDEYE 5 1 33313U 08040B 10248.98355072 -.00000001 00000-0 68704-5 0 2668 2 33313 097.9502 334.7175 0018239 341.4615 018.5907 14.79901778109085 RAPIDEYE 1 1 33314U 08040C 10248.97164505 .00000058 00000-0 14694-4 0 3106 2 33314 097.9505 335.4519 0025698 118.0847 242.2952 14.79904174109125 RAPIDEYE 3 1 33315U 08040D 10249.01038877 .00000041 00000-0 12432-4 0 2452 2 33315 097.9485 334.8219 0013509 055.2788 304.9690 14.79902875109094 RAPIDEYE 4 1 33316U 08040E 10248.99641132 .00000014 00000-0 88145-5 0 2368 2 33316 097.9481 334.6714 0012814 002.5236 357.6026 14.79903221109083 HJ-1A 1 33320U 08041A 10249.16182705 .00000043 00000-0 13775-4 0 2144 2 33320 097.9390 322.5822 0026154 087.7369 272.6852 14.75309888107645 HJ-1B 1 33321U 08041B 10249.05893438 .00000035 00000-0 12683-4 0 2514 2 33321 097.9413 322.5618 0044444 099.6258 260.9980 14.75295432107614 GEOEYE 1 1 33331U 08042A 10249.13324787 .00000045 00000-0 17574-4 0 2268 2 33331 098.1157 321.5727 0012091 113.1188 247.1301 14.64440269106745 THEOS 1 33396U 08049A 10249.16817850 .00000132 00000-0 82328-4 0 137 2 33396 098.6910 314.8864 0001098 091.8816 321.2836 14.20047373100078 SKYMED 3 1 33412U 08054A 10249.12092406 -.00000188 00000-0 -17058-4 0 603 2 33412 097.8644 075.2196 0001361 088.9100 271.2238 14.82165709100885 YAOGAN 4 1 33446U 08061A 10249.10509597 -.00001344 00000-0 -19079-3 0 9710 2 33446 097.8668 323.9894 0014817 036.2243 323.9996 14.75304387 94955 YAOGAN 5 1 33456U 08064A 10249.18309418 .00001503 00000-0 58731-4 0 9626 2 33456 097.3314 321.6589 0010367 252.4957 191.6436 15.27378279 96045 YAOGAN 6 1 34839U 09021A 10249.21681819 .00000929 00000-0 48164-4 0 5691 2 34839 097.5885 325.7536 0001884 025.2484 054.6306 15.18669149 76184 RAZAKSAT 1 35578U 09037A 10248.72357079 .00000604 00000-0 10183-4 0 2600 2 35578 008.9864 034.9445 0017593 019.3590 340.7259 14.64993517 61473 DEIMOS 1 1 35681U 09041A 10249.10854770 .00000087 00000-0 23051-4 0 2381 2 35681 098.0873 146.2409 0001277 075.3490 284.7869 14.69380982 59267 OCEANSAT 2 1 35931U 09051A 10248.89851850 .00006030 00000-0 15388-2 0 6572 2 35931 098.2794 344.7845 0002468 321.0500 038.9844 14.50873596 50401 WORLDVIEW 2 1 35946U 09055A 10249.10867322 .00000008 00000-0 17363-4 0 185 2 35946 098.5414 325.1682 0000328 291.8889 068.2277 14.37172858 47745 SMOS 1 36036U 09059A 10248.58587273 -.00000044 00000-0 00000+0 0 2611 2 36036 098.4431 074.5812 0001140 076.2557 283.8757 14.39763572 44256 YAOGAN 7 1 36110U 09069A 10249.07053117 -.00000051 00000-0 00000+0 0 8226 2 36110 097.8755 026.5703 0027328 147.2546 213.0343 14.76053323 39932